Tracking 27111 objects as of 28-Mar-2023
HD Live streaming from Space Station
objects crossing your sky now

COSMOS 736

Track COSMOS 736 now!
10-day predictions
COSMOS 736 is classified as:


NORAD ID: 7825
Int'l Code: 1975-045E
Perigee: 1,476.8 km
Apogee: 1,492.7 km
Inclination: 74.0 °
Period: 115.5 minutes
Semi major axis: 7855 km
RCS: 0.6859 m2 (medium)
Launch date: May 28, 1975
Source: Commonwealth of Independent States (former USSR) (CIS)
Launch site: PLESETSK MISSILE AND SPACE COMPLEX (PKMTR)
Your satellite tracking list
Your tracking list is empty




NASA's NSSDC Master Catalog

Two Line Element Set (TLE):
1 07825U 75045E   23086.81713965  .00000005  00000-0  13908-3 0  9991
2 07825  74.0184 206.8214 0010109  89.4348  27.0701 12.46861104177182
Source of the keplerian elements: AFSPC